Simultaneous Nadir Overpasses (SNOs) Predictions

Prediction of SNOs between GOES-16 and AQUA Satellite Orbit:

Table of predicted SNOs for the next 14.0 days since TLE Epoch: 1/16/2021
Index Date Time (GOES-16) GOES-16 Lat,Lon AQUA Lat,Lon Distance(km) Time Diff (sec)
1 01/17/2021 06:23:19 0.01, -75.20 -0.57, -72.38 319.26 80
2 01/17/2021 18:44:44 -0.01, -75.20 -0.50, -77.58 270.24 80
3 01/19/2021 18:35:12 -0.00, -75.22 0.12, -74.62 68.30 80
4 01/21/2021 18:23:00 -0.01, -75.25 0.75, -71.66 407.66 80
5 01/22/2021 06:44:15 0.01, -75.25 0.36, -76.81 177.94 80
6 01/24/2021 06:29:23 0.01, -75.28 -0.27, -73.85 161.56 80
7 01/24/2021 18:50:48 -0.01, -75.29 -0.79, -79.05 427.91 80
8 01/26/2021 18:38:36 -0.00, -75.32 -0.15, -76.09 88.10 80
9 01/28/2021 18:29:04 -0.00, -75.35 0.49, -73.14 252.18 80
10 01/29/2021 06:50:19 0.00, -75.36 0.63, -78.29 332.89 80
